Time,TemperatureF,DewpointF,PressureIn,WindDirection,WindDirectionDegrees,WindSpeedMPH,WindSpeedGustMPH,Humidity,HourlyPrecipIn,Conditions,Clouds,dailyrainin,SoftwareType,DateUTC
2013-06-19 00:02:00,54.0,50.0,29.97,North,0,0.0,-999.0,87,-99.99,,,-99.99,,2013-06-19 04:02:00,
2013-06-19 00:12:00,54.0,52.0,29.98,North,0,0.0,-999.0,93,-99.99,,,-99.99,,2013-06-19 04:12:00,
2013-06-19 00:22:00,54.0,52.0,29.98,North,0,0.0,-999.0,93,-99.99,,,-99.99,,2013-06-19 04:22:00,
2013-06-19 00:32:00,54.0,50.0,29.98,North,0,0.0,-999.0,87,-99.99,,,-99.99,,2013-06-19 04:32:00,
2013-06-19 00:43:00,54.0,50.0,29.98,North,0,0.0,-999.0,87,-99.99,,,-99.99,,2013-06-19 04:43:00,
2013-06-19 00:53:00,52.0,48.0,29.98,North,0,0.0,-999.0,87,-99.99,,,-99.99,,2013-06-19 04:53:00,
2013-06-19 01:01:00,52.0,50.0,29.98,North,0,0.0,-999.0,93,-99.99,,,-99.99,,2013-06-19 05:01:00,
2013-06-19 01:11:00,52.0,50.0,29.97,North,0,0.0,-999.0,93,-99.99,,,-99.99,,2013-06-19 05:11:00,
2013-06-19 01:23:00,52.0,48.0,29.97,North,0,0.0,-999.0,87,-99.99,,,-99.99,,2013-06-19 05:23:00,
2013-06-19 01:32:00,52.0,48.0,29.97,North,0,0.0,-999.0,87,-99.99,,,-99.99,,2013-06-19 05:32:00,
2013-06-19 01:43:00,52.0,48.0,29.97,North,0,0.0,-999.0,87,-99.99,,,-99.99,,2013-06-19 05:43:00,
2013-06-19 01:52:00,52.0,48.0,29.98,North,0,0.0,-999.0,87,-99.99,,,-99.99,,2013-06-19 05:52:00,
2013-06-19 02:02:00,52.0,48.0,29.98,North,0,0.0,-999.0,87,-99.99,,,-99.99,,2013-06-19 06:02:00,
2013-06-19 02:11:00,52.0,48.0,29.97,North,0,0.0,-999.0,87,-99.99,,,-99.99,,2013-06-19 06:11:00,
2013-06-19 02:22:00,52.0,48.0,29.97,North,0,0.0,-999.0,87,-99.99,,,-99.99,,2013-06-19 06:22:00,
2013-06-19 02:34:00,52.0,48.0,29.97,North,0,0.0,-999.0,87,-99.99,,,-99.99,,2013-06-19 06:34:00,
2013-06-19 02:42:00,52.0,48.0,29.97,North,0,0.0,-999.0,87,-99.99,,,-99.99,,2013-06-19 06:42:00,
2013-06-19 02:52:00,50.0,48.0,29.97,North,0,0.0,-999.0,93,-99.99,,,-99.99,,2013-06-19 06:52:00,
2013-06-19 03:01:00,50.0,48.0,29.97,North,0,0.0,-999.0,93,-99.99,,,-99.99,,2013-06-19 07:01:00,
2013-06-19 03:11:00,52.0,48.0,29.98,North,0,0.0,-999.0,87,-99.99,,,-99.99,,2013-06-19 07:11:00,
2013-06-19 03:22:00,52.0,48.0,29.98,North,0,0.0,-999.0,87,-99.99,,,-99.99,,2013-06-19 07:22:00,
2013-06-19 03:33:00,48.0,46.0,29.99,North,0,0.0,-999.0,93,-99.99,,,-99.99,,2013-06-19 07:33:00,
2013-06-19 03:43:00,48.0,46.0,29.99,North,0,0.0,-999.0,93,-99.99,,,-99.99,,2013-06-19 07:43:00,
2013-06-19 03:53:00,48.0,48.0,29.99,North,0,0.0,-999.0,100,-99.99,,,-99.99,,2013-06-19 07:53:00,
2013-06-19 04:02:00,48.0,48.0,30.00,North,0,0.0,-999.0,100,-99.99,,,-99.99,,2013-06-19 08:02:00,
2013-06-19 04:11:00,50.0,48.0,30.00,East,100,3.0,-999.0,93,-99.99,,,-99.99,,2013-06-19 08:11:00,
2013-06-19 04:22:00,48.0,48.0,30.00,North,0,0.0,-999.0,100,-99.99,,,-99.99,,2013-06-19 08:22:00,
2013-06-19 04:34:00,46.0,45.0,30.01,North,0,0.0,-999.0,93,-99.99,,,-99.99,,2013-06-19 08:34:00,
2013-06-19 04:43:00,48.0,46.0,30.01,North,0,0.0,-999.0,93,-99.99,,,-99.99,,2013-06-19 08:43:00,
2013-06-19 04:53:00,48.0,46.0,30.01,North,0,0.0,-999.0,93,-99.99,,,-99.99,,2013-06-19 08:53:00,
2013-06-19 05:02:00,48.0,46.0,30.01,North,0,0.0,-999.0,93,-99.99,,,-99.99,,2013-06-19 09:02:00,
2013-06-19 05:12:00,48.0,46.0,30.01,North,0,0.0,-999.0,93,-99.99,,,-99.99,,2013-06-19 09:12:00,
2013-06-19 05:22:00,48.0,46.0,30.01,North,0,0.0,-999.0,93,-99.99,,,-99.99,,2013-06-19 09:22:00,
2013-06-19 05:34:00,48.0,46.0,30.01,North,0,0.0,-999.0,93,-99.99,,,-99.99,,2013-06-19 09:34:00,
2013-06-19 05:44:00,48.0,46.0,30.02,North,0,0.0,-999.0,93,-99.99,,,-99.99,,2013-06-19 09:44:00,
2013-06-19 05:53:00,48.0,46.0,30.02,North,0,0.0,-999.0,93,-99.99,,,-99.99,,2013-06-19 09:53:00,
2013-06-19 06:02:00,48.0,46.0,30.02,North,0,0.0,-999.0,93,-99.99,,,-99.99,,2013-06-19 10:02:00,
2013-06-19 06:12:00,46.0,46.0,30.03,North,0,0.0,-999.0,100,-99.99,,,-99.99,,2013-06-19 10:12:00,
2013-06-19 06:22:00,48.0,46.0,30.03,North,0,0.0,-999.0,93,-99.99,,,-99.99,,2013-06-19 10:22:00,
2013-06-19 06:33:00,48.0,46.0,30.03,North,0,0.0,-999.0,93,-99.99,,,-99.99,,2013-06-19 10:33:00,
2013-06-19 06:42:00,50.0,46.0,30.04,North,0,0.0,-999.0,87,-99.99,,,-99.99,,2013-06-19 10:42:00,
2013-06-19 06:52:00,52.0,46.0,30.04,North,0,0.0,-999.0,81,-99.99,,,-99.99,,2013-06-19 10:52:00,
2013-06-19 07:02:00,54.0,46.0,30.04,North,360,3.0,-999.0,76,-99.99,,,-99.99,,2013-06-19 11:02:00,
2013-06-19 07:12:00,54.0,45.0,30.04,North,350,3.0,-999.0,71,-99.99,,,-99.99,,2013-06-19 11:12:00,
2013-06-19 07:22:00,55.0,45.0,30.05,NNW,340,5.0,-999.0,66,-99.99,,,-99.99,,2013-06-19 11:22:00,
2013-06-19 07:33:00,55.0,45.0,30.05,NNW,340,5.0,-999.0,66,-99.99,,,-99.99,,2013-06-19 11:33:00,
2013-06-19 07:43:00,55.0,43.0,30.05,North,350,5.0,-999.0,62,-99.99,,,-99.99,,2013-06-19 11:43:00,
2013-06-19 07:54:00,55.0,43.0,30.06,North,350,5.0,-999.0,62,-99.99,,,-99.99,,2013-06-19 11:54:00,
2013-06-19 08:02:00,57.0,43.0,30.06,North,350,5.0,-999.0,58,-99.99,,,-99.99,,2013-06-19 12:02:00,
2013-06-19 08:11:00,57.0,43.0,30.06,NNE,20,5.0,-999.0,58,-99.99,,,-99.99,,2013-06-19 12:11:00,
2013-06-19 08:22:00,57.0,43.0,30.06,North,360,6.0,-999.0,58,-99.99,,,-99.99,,2013-06-19 12:22:00,
2013-06-19 08:34:00,59.0,45.0,30.07,North,10,6.0,-999.0,58,-99.99,,,-99.99,,2013-06-19 12:34:00,
2013-06-19 08:44:00,59.0,43.0,30.07,NNE,20,6.0,-999.0,54,-99.99,,,-99.99,,2013-06-19 12:44:00,
2013-06-19 08:53:00,61.0,43.0,30.08,NNE,30,6.0,-999.0,51,-99.99,,,-99.99,,2013-06-19 12:53:00,
2013-06-19 09:02:00,61.0,43.0,30.08,NNE,20,6.0,-999.0,51,-99.99,,,-99.99,,2013-06-19 13:02:00,
2013-06-19 09:12:00,61.0,43.0,30.08,North,360,6.0,-999.0,51,-99.99,,,-99.99,,2013-06-19 13:12:00,
2013-06-19 09:22:00,61.0,43.0,30.08,NNE,20,5.0,-999.0,51,-99.99,,,-99.99,,2013-06-19 13:22:00,
2013-06-19 09:33:00,61.0,43.0,30.08,NNW,330,7.0,-999.0,51,-99.99,,,-99.99,,2013-06-19 13:33:00,
2013-06-19 09:42:00,63.0,43.0,30.09,North,0,0.0,-999.0,48,-99.99,,,-99.99,,2013-06-19 13:42:00,
2013-06-19 09:53:00,63.0,43.0,30.08,North,0,0.0,-999.0,48,-99.99,,,-99.99,,2013-06-19 13:53:00,
2013-06-19 10:02:00,63.0,43.0,30.09,NNE,20,3.0,-999.0,48,-99.99,,,-99.99,,2013-06-19 14:02:00,
2013-06-19 10:12:00,64.0,43.0,30.09,North,0,0.0,-999.0,45,-99.99,,,-99.99,,2013-06-19 14:12:00,
2013-06-19 10:22:00,64.0,39.0,30.09,NNE,30,6.0,-999.0,39,-99.99,,,-99.99,,2013-06-19 14:22:00,
2013-06-19 10:33:00,66.0,39.0,30.09,NE,40,7.0,-999.0,37,-99.99,,,-99.99,,2013-06-19 14:33:00,
2013-06-19 10:44:00,66.0,39.0,30.09,ENE,70,7.0,-999.0,37,-99.99,,,-99.99,,2013-06-19 14:44:00,
2013-06-19 10:52:00,66.0,39.0,30.09,NE,50,8.0,-999.0,37,-99.99,,,-99.99,,2013-06-19 14:52:00,
2013-06-19 11:02:00,66.0,37.0,30.09,North,10,3.0,-999.0,34,-99.99,,,-99.99,,2013-06-19 15:02:00,
2013-06-19 11:11:00,66.0,39.0,30.09,NE,40,7.0,-999.0,37,-99.99,,,-99.99,,2013-06-19 15:11:00,
2013-06-19 11:22:00,66.0,39.0,30.09,NE,50,6.0,-999.0,37,-99.99,,,-99.99,,2013-06-19 15:22:00,
2013-06-19 11:33:00,66.0,39.0,30.09,ENE,70,9.0,-999.0,37,-99.99,,,-99.99,,2013-06-19 15:33:00,
2013-06-19 11:42:00,66.0,39.0,30.09,NE,50,8.0,-999.0,37,-99.99,,,-99.99,,2013-06-19 15:42:00,
2013-06-19 11:53:00,68.0,39.0,30.09,NNW,340,7.0,-999.0,34,-99.99,,,-99.99,,2013-06-19 15:53:00,
2013-06-19 12:01:00,68.0,39.0,30.09,North,10,7.0,-999.0,34,-99.99,,,-99.99,,2013-06-19 16:01:00,
2013-06-19 12:11:00,68.0,39.0,30.09,North,10,7.0,-999.0,34,-99.99,,,-99.99,,2013-06-19 16:11:00,
2013-06-19 12:22:00,70.0,39.0,30.09,North,10,5.0,-999.0,32,-99.99,,,-99.99,,2013-06-19 16:22:00,
2013-06-19 12:34:00,68.0,39.0,30.09,North,0,0.0,-999.0,34,-99.99,,,-99.99,,2013-06-19 16:34:00,
2013-06-19 12:43:00,70.0,39.0,30.09,NNE,20,3.0,-999.0,32,-99.99,,,-99.99,,2013-06-19 16:43:00,
2013-06-19 12:52:00,70.0,39.0,30.09,NNE,30,7.0,-999.0,32,-99.99,,,-99.99,,2013-06-19 16:52:00,
2013-06-19 13:02:00,70.0,39.0,30.09,NNW,330,6.0,-999.0,32,-99.99,,,-99.99,,2013-06-19 17:02:00,
2013-06-19 13:12:00,70.0,37.0,30.09,North,0,0.0,-999.0,30,-99.99,,,-99.99,,2013-06-19 17:12:00,
2013-06-19 13:22:00,70.0,39.0,30.09,NNE,20,8.0,-999.0,32,-99.99,,,-99.99,,2013-06-19 17:22:00,
2013-06-19 13:34:00,70.0,39.0,30.09,NE,40,6.0,-999.0,32,-99.99,,,-99.99,,2013-06-19 17:34:00,
2013-06-19 13:43:00,70.0,39.0,30.08,North,10,3.0,-999.0,32,-99.99,,,-99.99,,2013-06-19 17:43:00,
2013-06-19 13:53:00,70.0,39.0,30.08,NE,50,6.0,-999.0,32,-99.99,,,-99.99,,2013-06-19 17:53:00,
2013-06-19 14:02:00,72.0,39.0,30.08,NE,50,5.0,-999.0,30,-99.99,,,-99.99,,2013-06-19 18:02:00,
2013-06-19 14:12:00,72.0,41.0,30.08,NNE,30,8.0,16.0,33,-99.99,,,-99.99,,2013-06-19 18:12:00,
2013-06-19 14:24:00,72.0,41.0,30.08,NE,40,6.0,-999.0,33,-99.99,,,-99.99,,2013-06-19 18:24:00,
2013-06-19 14:33:00,72.0,41.0,30.08,East,80,6.0,-999.0,33,-99.99,,,-99.99,,2013-06-19 18:33:00,
2013-06-19 14:44:00,72.0,41.0,30.08,ESE,110,6.0,-999.0,33,-99.99,,,-99.99,,2013-06-19 18:44:00,
2013-06-19 14:53:00,72.0,41.0,30.08,SE,130,5.0,-999.0,33,-99.99,,,-99.99,,2013-06-19 18:53:00,
2013-06-19 15:01:00,72.0,43.0,30.08,ENE,60,6.0,-999.0,35,-99.99,,,-99.99,,2013-06-19 19:01:00,
2013-06-19 15:12:00,72.0,41.0,30.08,North,0,0.0,-999.0,33,-99.99,,,-99.99,,2013-06-19 19:12:00,
2013-06-19 15:22:00,70.0,43.0,30.08,SE,130,3.0,-999.0,37,-99.99,,,-99.99,,2013-06-19 19:22:00,
2013-06-19 15:32:00,70.0,43.0,30.09,ESE,120,3.0,-999.0,37,-99.99,,,-99.99,,2013-06-19 19:32:00,
2013-06-19 15:43:00,72.0,41.0,30.08,East,80,6.0,-999.0,33,-99.99,,,-99.99,,2013-06-19 19:43:00,
2013-06-19 15:52:00,72.0,43.0,30.08,East,100,6.0,-999.0,35,-99.99,,,-99.99,,2013-06-19 19:52:00,
2013-06-19 16:02:00,70.0,43.0,30.08,East,90,10.0,-999.0,37,-99.99,,,-99.99,,2013-06-19 20:02:00,
2013-06-19 16:11:00,72.0,43.0,30.08,East,80,7.0,-999.0,35,-99.99,,,-99.99,,2013-06-19 20:11:00,
2013-06-19 16:22:00,72.0,43.0,30.08,East,90,6.0,-999.0,35,-99.99,,,-99.99,,2013-06-19 20:22:00,
2013-06-19 16:33:00,72.0,43.0,30.08,East,90,3.0,-999.0,35,-99.99,,,-99.99,,2013-06-19 20:33:00,
2013-06-19 16:42:00,72.0,41.0,30.08,SE,130,6.0,-999.0,33,-99.99,,,-99.99,,2013-06-19 20:42:00,
2013-06-19 16:52:00,72.0,41.0,30.08,ESE,120,6.0,-999.0,33,-99.99,,,-99.99,,2013-06-19 20:52:00,
2013-06-19 17:02:00,73.0,43.0,30.08,ESE,120,3.0,-999.0,33,-99.99,,,-99.99,,2013-06-19 21:02:00,
2013-06-19 17:12:00,72.0,43.0,30.08,East,90,5.0,-999.0,35,-99.99,,,-99.99,,2013-06-19 21:12:00,
2013-06-19 17:22:00,72.0,43.0,30.08,East,90,3.0,-999.0,35,-99.99,,,-99.99,,2013-06-19 21:22:00,
2013-06-19 17:33:00,72.0,43.0,30.08,North,0,0.0,-999.0,35,-99.99,,,-99.99,,2013-06-19 21:33:00,
2013-06-19 17:44:00,72.0,43.0,30.08,North,0,0.0,-999.0,35,-99.99,,,-99.99,,2013-06-19 21:44:00,
2013-06-19 17:52:00,72.0,43.0,30.08,North,0,0.0,-999.0,35,-99.99,,,-99.99,,2013-06-19 21:52:00,
2013-06-19 18:02:00,72.0,43.0,30.08,North,0,0.0,-999.0,35,-99.99,,,-99.99,,2013-06-19 22:02:00,
2013-06-19 18:11:00,72.0,43.0,30.08,WNW,300,3.0,-999.0,35,-99.99,,,-99.99,,2013-06-19 22:11:00,
2013-06-19 18:22:00,72.0,43.0,30.08,North,0,0.0,-999.0,35,-99.99,,,-99.99,,2013-06-19 22:22:00,
2013-06-19 18:34:00,72.0,41.0,30.08,North,0,0.0,-999.0,33,-99.99,,,-99.99,,2013-06-19 22:34:00,
2013-06-19 18:43:00,72.0,43.0,30.08,WNW,300,5.0,-999.0,35,-99.99,,,-99.99,,2013-06-19 22:43:00,
2013-06-19 18:53:00,72.0,39.0,30.08,WSW,250,3.0,-999.0,30,-99.99,,,-99.99,,2013-06-19 22:53:00,
2013-06-19 19:02:00,72.0,41.0,30.08,West,280,5.0,-999.0,33,-99.99,,,-99.99,,2013-06-19 23:02:00,
2013-06-19 19:12:00,72.0,43.0,30.08,NNW,330,3.0,-999.0,35,-99.99,,,-99.99,,2013-06-19 23:12:00,
2013-06-19 19:23:00,72.0,41.0,30.09,NNE,30,3.0,-999.0,33,-99.99,,,-99.99,,2013-06-19 23:23:00,
2013-06-19 19:33:00,70.0,43.0,30.09,ESE,110,3.0,-999.0,37,-99.99,,,-99.99,,2013-06-19 23:33:00,
2013-06-19 19:43:00,70.0,43.0,30.10,East,100,3.0,-999.0,37,-99.99,,,-99.99,,2013-06-19 23:43:00,
2013-06-19 19:52:00,70.0,45.0,30.10,East,100,5.0,-999.0,40,-99.99,,,-99.99,,2013-06-19 23:52:00,
2013-06-19 20:01:00,68.0,45.0,30.10,East,90,5.0,-999.0,42,-99.99,,,-99.99,,2013-06-20 00:01:00,
2013-06-19 20:12:00,68.0,45.0,30.10,North,0,0.0,-999.0,42,-99.99,,,-99.99,,2013-06-20 00:12:00,
2013-06-19 20:22:00,66.0,45.0,30.10,North,0,0.0,-999.0,45,-99.99,,,-99.99,,2013-06-20 00:22:00,
2013-06-19 20:33:00,66.0,45.0,30.11,North,0,0.0,-999.0,45,-99.99,,,-99.99,,2013-06-20 00:33:00,
2013-06-19 20:44:00,66.0,43.0,30.11,North,0,0.0,-999.0,42,-99.99,,,-99.99,,2013-06-20 00:44:00,
2013-06-19 20:52:00,66.0,45.0,30.11,NW,320,5.0,-999.0,45,-99.99,,,-99.99,,2013-06-20 00:52:00,
2013-06-19 21:02:00,64.0,45.0,30.12,North,0,0.0,-999.0,48,-99.99,,,-99.99,,2013-06-20 01:02:00,
2013-06-19 21:11:00,64.0,45.0,30.12,North,0,0.0,-999.0,48,-99.99,,,-99.99,,2013-06-20 01:11:00,
2013-06-19 21:22:00,64.0,45.0,30.13,North,0,0.0,-999.0,48,-99.99,,,-99.99,,2013-06-20 01:22:00,
2013-06-19 21:33:00,63.0,46.0,30.13,North,0,0.0,-999.0,55,-99.99,,,-99.99,,2013-06-20 01:33:00,
2013-06-19 21:44:00,61.0,46.0,30.14,NNW,330,3.0,-999.0,59,-99.99,,,-99.99,,2013-06-20 01:44:00,
2013-06-19 21:52:00,61.0,46.0,30.14,North,0,0.0,-999.0,59,-99.99,,,-99.99,,2013-06-20 01:52:00,
2013-06-19 22:02:00,61.0,46.0,30.14,NNW,340,3.0,-999.0,59,-99.99,,,-99.99,,2013-06-20 02:02:00,
2013-06-19 22:11:00,61.0,46.0,30.15,North,0,0.0,-999.0,59,-99.99,,,-99.99,,2013-06-20 02:11:00,
2013-06-19 22:24:00,61.0,46.0,30.16,NNW,340,3.0,-999.0,59,-99.99,,,-99.99,,2013-06-20 02:24:00,
2013-06-19 22:34:00,61.0,46.0,30.16,North,0,0.0,-999.0,59,-99.99,,,-99.99,,2013-06-20 02:34:00,
2013-06-19 22:43:00,61.0,46.0,30.16,North,0,0.0,-999.0,59,-99.99,,,-99.99,,2013-06-20 02:43:00,
2013-06-19 22:52:00,61.0,45.0,30.16,North,0,0.0,-999.0,55,-99.99,,,-99.99,,2013-06-20 02:52:00,
2013-06-19 23:02:00,63.0,45.0,30.16,North,0,0.0,-999.0,51,-99.99,,,-99.99,,2013-06-20 03:02:00,
2013-06-19 23:11:00,63.0,45.0,30.18,North,0,0.0,-999.0,51,-99.99,,,-99.99,,2013-06-20 03:11:00,
2013-06-19 23:22:00,61.0,45.0,30.18,North,0,0.0,-999.0,55,-99.99,,,-99.99,,2013-06-20 03:22:00,
2013-06-19 23:33:00,59.0,46.0,30.18,North,0,0.0,-999.0,62,-99.99,,,-99.99,,2013-06-20 03:33:00,
2013-06-19 23:43:00,59.0,46.0,30.18,North,350,6.0,-999.0,62,-99.99,,,-99.99,,2013-06-20 03:43:00,
2013-06-19 23:53:00,61.0,46.0,30.18,NW,320,3.0,-999.0,59,-99.99,,,-99.99,,2013-06-20 03:53:00,